Macon, GA

1:09 AM EDT on August 26, 2016 (GMT -0400)
Middle Georgia Regional

Weather History for KMCN - July, 2013

Change the Weather History Date:

Monday, July 8, 2013

  Actual Average Record
Temperature  
Mean Temperature 80 °F 82 °F  
Max Temperature 90 °F 93 °F 102 °F (1977)
Min Temperature 70 °F 71 °F 59 °F (2006)
Degree Days  
Heating Degree Days 0 0  
Month to date heating degree days 0 0  
Since 1 June heating degree days 0 0  
Since 1 July heating degree days 0 0  
Cooling Degree Days 15 17  
Month to date cooling degree days 108 130  
Year to date cooling degree days 714 862  
Since 1 June cooling degree days 504 549  
Growing Degree Days 30 (Base 50)    
Moisture  
Dew Point 72 °F    
Average Humidity 80    
Maximum Humidity 100    
Minimum Humidity 59    
Precipitation  
Precipitation T in 0.16 in 1.50 in (1895)
Month to date precipitation 4.34 1.25  
Year to date precipitation 45.28 24.14  
Sea Level Pressure  
Sea Level Pressure 30.16 in    
Wind  
Wind Speed 2 mph (SSE)    
Max Wind Speed 15 mph    
Max Gust Speed 20 mph    
Visibility 7 miles    
Events      
T = Trace of Precipitation, MM = Missing Value Source: NWS Daily Summary

Daily Weather History Graph

Daily Weather History Graph

Search for Another Location

Airport or City:

Trip Planner

Search our weather history database for the weather conditions in past years. The results will help you decide how hot, cold, wet, or windy it might be!

Date:

Astronomy

Jul. 08, 2013 Rise Set
Actual Time 6:33 AM EDT 8:45 PM EDT
Civil Twilight 6:05 AM EDT 9:13 PM EDT
Nautical Twilight 5:31 AM EDT 9:48 PM EDT
Astronomical Twilight 4:53 AM EDT 10:25 PM EDT
Moon 6:57 AM EDT (7/8) 8:53 PM EDT (7/8)
Length of Visible Light 15h 08m
Length of Day
14h 11m
New Moon, 0% of the Moon is Illuminated
Jul 8
New Moon
Jul 15
First Quarter
Jul 22
Full
Jul 29
Last Quarter
Aug 6
New

Hourly Weather History & Observations

Time (EDT) Temp. Heat Index Dew Point Humidity Pressure Visibility Wind Dir Wind Speed Gust Speed Precip Events Conditions
12:53 AM 72.0 °F - 71.1 °F 97% 30.15 in 10.0 mi Calm Calm - N/A   Clear
1:18 AM 71.6 °F - 71.6 °F 100% 30.16 in 9.0 mi Calm Calm - N/A   Partly Cloudy
1:53 AM 72.0 °F - 71.1 °F 97% 30.15 in 7.0 mi Calm Calm - N/A   Partly Cloudy
2:11 AM 71.6 °F - 71.6 °F 100% 30.17 in 7.0 mi ESE 4.6 mph - N/A   Mostly Cloudy
2:23 AM 71.6 °F - 71.6 °F 100% 30.17 in 9.0 mi Calm Calm - N/A   Scattered Clouds
2:53 AM 71.1 °F - 71.1 °F 100% 30.15 in 9.0 mi East 3.5 mph - N/A   Partly Cloudy
3:53 AM 71.1 °F - 71.1 °F 100% 30.15 in 8.0 mi Calm Calm - N/A   Clear
4:51 AM 71.6 °F - 71.6 °F 100% 30.16 in 6.0 mi Calm Calm - N/A   Scattered Clouds
4:53 AM 71.1 °F - 71.1 °F 100% 30.15 in 6.0 mi Calm Calm - N/A   Scattered Clouds
4:57 AM 71.6 °F - 71.6 °F 100% 30.16 in 2.5 mi Calm Calm - N/A   Mostly Cloudy
5:02 AM 71.6 °F - 71.6 °F 100% 30.16 in 1.5 mi Calm Calm - N/A   Scattered Clouds
5:09 AM 71.6 °F - 71.6 °F 100% 30.16 in 3.0 mi Calm Calm - N/A   Scattered Clouds
5:45 AM 71.6 °F - 71.6 °F 100% 30.17 in 1.8 mi Calm Calm - N/A   Mostly Cloudy
5:53 AM 70.0 °F - 70.0 °F 100% 30.15 in 2.0 mi Calm Calm - N/A   Mostly Cloudy
6:16 AM 71.6 °F - 69.8 °F 94% 30.17 in 1.5 mi Calm Calm - N/A   Overcast
6:26 AM 69.8 °F - 69.8 °F 100% 30.17 in 0.8 mi Calm Calm - N/A   Mist
6:43 AM 69.8 °F - 69.8 °F 100% 30.17 in 1.2 mi Calm Calm - N/A   Scattered Clouds
6:53 AM 70.0 °F - 70.0 °F 100% 30.16 in 3.0 mi Calm Calm - N/A   Partly Cloudy
7:26 AM 71.6 °F - 71.6 °F 100% 30.18 in 1.8 mi Calm Calm - N/A   Mostly Cloudy
7:38 AM 71.6 °F - 71.6 °F 100% 30.18 in 3.0 mi Calm Calm - N/A   Mostly Cloudy
7:53 AM 71.1 °F - 71.1 °F 100% 30.17 in 3.0 mi Calm Calm - N/A   Overcast
8:09 AM 71.6 °F - 71.6 °F 100% 30.18 in 3.0 mi Calm Calm - N/A   Scattered Clouds
8:53 AM 75.9 °F - 73.0 °F 91% 30.17 in 10.0 mi SSW 3.5 mph - N/A   Clear
9:53 AM 78.1 °F - 72.0 °F 81% 30.18 in 10.0 mi Calm Calm - N/A   Clear
10:53 AM 82.0 °F 86.7 °F 72.0 °F 71% 30.18 in 10.0 mi Calm Calm - N/A   Clear
11:03 AM 82.4 °F 87.2 °F 71.6 °F 70% 30.20 in 10.0 mi NW 4.6 mph - N/A   Mostly Cloudy
11:51 AM 84.2 °F 90.9 °F 73.4 °F 70% 30.20 in 10.0 mi NE 4.6 mph - N/A   Partly Cloudy
11:53 AM 84.0 °F 90.2 °F 73.0 °F 69% 30.19 in 10.0 mi NE 4.6 mph - N/A   Partly Cloudy
12:17 PM 84.2 °F 90.9 °F 73.4 °F 70% 30.20 in 10.0 mi Calm Calm - N/A   Mostly Cloudy
12:42 PM 84.2 °F 90.9 °F 73.4 °F 70% 30.19 in 10.0 mi Calm Calm - N/A   Partly Cloudy
12:53 PM 84.9 °F 91.4 °F 73.0 °F 67% 30.18 in 10.0 mi West 3.5 mph - N/A   Scattered Clouds
1:53 PM 87.1 °F 94.5 °F 73.0 °F 63% 30.17 in 10.0 mi Variable 3.5 mph - N/A   Scattered Clouds
2:53 PM 88.0 °F 93.8 °F 71.1 °F 57% 30.15 in 10.0 mi Calm Calm - N/A   Scattered Clouds
3:53 PM 87.1 °F 92.8 °F 71.1 °F 59% 30.13 in 10.0 mi Calm Calm - N/A   Mostly Cloudy
4:53 PM 87.1 °F 92.8 °F 71.1 °F 59% 30.10 in 10.0 mi Variable 4.6 mph - N/A   Scattered Clouds
5:53 PM 88.0 °F 93.8 °F 71.1 °F 57% 30.10 in 10.0 mi Calm Calm - N/A   Clear
6:53 PM 81.0 °F 85.8 °F 73.0 °F 77% 30.11 in 10.0 mi WSW 8.1 mph - N/A   Scattered Clouds
7:53 PM 79.0 °F - 73.9 °F 84% 30.11 in 10.0 mi WNW 6.9 mph 17.3 mph 0.00 in   Mostly Cloudy
8:53 PM 77.0 °F - 72.0 °F 84% 30.13 in 10.0 mi Calm Calm - N/A   Clear
9:53 PM 79.0 °F - 73.0 °F 82% 30.15 in 10.0 mi SE 11.5 mph 18.4 mph N/A   Mostly Cloudy
10:53 PM 77.0 °F - 71.1 °F 82% 30.15 in 10.0 mi Calm Calm - N/A   Clear
11:53 PM 75.0 °F - 71.1 °F 87% 30.16 in 10.0 mi SE 3.5 mph - N/A   Clear